Shungnak AP, Shungnak, AK, AK

6:07 PM AKST on December 14, 2019 (GMT -0900)
Shungnak AP, Shungnak, AK

Weather History for PAGH - October, 2019

Change the Weather History Date:

Wednesday, October 30, 2019

  Actual Average (WUND) Record (WUND)
Temperature  
Mean Temperature 23 °F -  
Max Temperature 27 °F - - (-1)
Min Temperature 19 °F - - (-1)
Degree Days  
Heating Degree Days 42    
Moisture  
Dew Point 21 °F    
Average Humidity 88    
Maximum Humidity 100    
Minimum Humidity 80    
Precipitation  
Precipitation 0.00 in - - ()
Sea Level Pressure  
Sea Level Pressure 29.98 in    
Wind  
Wind Speed 10 mph (WSW)    
Max Wind Speed 17 mph    
Max Gust Speed 24 mph    
Visibility 6 miles    
Events Snow    
Averages and records for this station are not official NWS values.
T = Trace of Precipitation, MM = Missing Value Source: NWS Daily Summary

Daily Weather History Graph

Daily Weather History Graph

Search for Another Location

Airport or City:

Astronomy

Oct. 30, 2019 Rise Set
Actual Time 10:23 AM AKDT 6:00 PM AKDT
Civil Twilight 9:22 AM AKDT 7:00 PM AKDT
Nautical Twilight 8:19 AM AKDT 8:03 PM AKDT
Astronomical Twilight 7:18 AM AKDT 9:04 PM AKDT
Moon 2:50 PM AKDT (10/30) 6:40 PM AKDT (10/30)
Length of Visible Light 9h 37m
Length of Day
7h 37m
Waxing Crescent, 9% of the Moon is Illuminated
Oct 30
Waxing Crescent
Nov 4
First Quarter
Nov 12
Full
Nov 19
Last Quarter
Nov 26
New

Hourly Weather History & Observations

Time (AKDT) Temp. Windchill Dew Point Humidity Pressure Visibility Wind Dir Wind Speed Gust Speed Precip Events Conditions
12:56 AM 27.0 °F 16.1 °F 25.0 °F 92% 29.72 in 10.0 mi West 12.7 mph - N/A   Overcast
1:56 AM 24.1 °F 14.4 °F 21.9 °F 91% 29.75 in 10.0 mi WSW 9.2 mph - N/A   Clear
2:56 AM 19.9 °F - 18.0 °F 92% 29.78 in 10.0 mi Calm Calm - N/A   Clear
3:56 AM 21.0 °F 14.6 °F 19.0 °F 92% 29.81 in 10.0 mi West 4.6 mph - N/A   Mostly Cloudy
4:29 AM 23.0 °F 15.8 °F 21.2 °F 93% 29.79 in 10.0 mi WNW 5.8 mph - N/A   Overcast
4:56 AM 23.0 °F 14.7 °F 21.9 °F 96% 29.82 in 9.0 mi West 6.9 mph - 0.00 in Snow Light Snow
5:56 AM 23.0 °F - 21.9 °F 96% 29.84 in 7.0 mi Calm Calm - 0.00 in Snow Light Snow
6:34 AM 24.8 °F - 24.8 °F 100% 29.82 in 5.0 mi Calm Calm - 0.00 in Snow Light Snow
6:48 AM 24.8 °F 17.9 °F 24.8 °F 100% 29.82 in 6.0 mi WSW 5.8 mph - 0.00 in Snow Light Snow
6:56 AM 26.1 °F 17.6 °F 25.0 °F 96% 29.85 in 4.0 mi WSW 8.1 mph - 0.00 in Snow Light Snow
7:04 AM 26.6 °F 16.2 °F 24.8 °F 93% 29.83 in 4.0 mi WSW 11.5 mph - 0.00 in Snow Light Snow
7:56 AM 27.0 °F 15.6 °F 25.0 °F 92% 29.87 in 8.0 mi West 13.8 mph 19.6 mph 0.00 in Snow Light Snow
8:56 AM 26.1 °F 16.2 °F 24.1 °F 92% 29.90 in 8.0 mi WSW 10.4 mph 21.9 mph 0.00 in Snow Light Snow
9:56 AM 25.0 °F 13.1 °F 23.0 °F 92% 29.92 in 9.0 mi WSW 13.8 mph 20.7 mph 0.00 in Snow Light Snow
10:41 AM 24.8 °F 11.9 °F 21.2 °F 86% 29.92 in 3.0 mi SW 16.1 mph 21.9 mph 0.00 in Snow Light Snow
10:56 AM 24.1 °F 13.1 °F 21.9 °F 91% 29.95 in 4.0 mi SW 11.5 mph 19.6 mph 0.00 in Snow Light Snow
11:10 AM 24.8 °F 12.9 °F 21.2 °F 86% 29.93 in 8.0 mi WSW 13.8 mph 19.6 mph 0.00 in Snow Light Snow
11:52 AM 24.8 °F 12.9 °F 21.2 °F 86% 29.95 in 2.5 mi WSW 13.8 mph 21.9 mph 0.00 in Snow Light Snow
11:56 AM 24.1 °F 11.5 °F 21.9 °F 91% 29.98 in 3.0 mi SW 15.0 mph 21.9 mph 0.00 in Snow Light Snow
12:20 PM 24.8 °F 12.4 °F 21.2 °F 86% 29.97 in 1.8 mi SW 15.0 mph 20.7 mph 0.00 in Snow Light Snow
12:47 PM 24.8 °F 12.4 °F 21.2 °F 86% 29.98 in 3.0 mi SW 15.0 mph 21.9 mph 0.00 in Snow Light Snow
12:56 PM 24.1 °F 13.1 °F 21.0 °F 88% 30.01 in 9.0 mi SW 11.5 mph - 0.00 in Snow Light Snow
1:56 PM 25.0 °F 13.6 °F 21.0 °F 85% 30.03 in 9.0 mi SW 12.7 mph - 0.00 in Snow Light Snow
2:17 PM 24.8 °F 12.4 °F 21.2 °F 86% 30.01 in 8.0 mi SW 15.0 mph 19.6 mph 0.00 in Snow Light Snow
2:31 PM 24.8 °F 11.9 °F 21.2 °F 86% 30.01 in 3.0 mi SW 16.1 mph 21.9 mph 0.00 in Snow Light Snow
2:56 PM 25.0 °F 13.1 °F 21.0 °F 85% 30.05 in 9.0 mi WSW 13.8 mph 23.0 mph 0.00 in Snow Light Snow
3:22 PM 24.8 °F 12.4 °F 21.2 °F 86% 30.03 in 9.0 mi WSW 15.0 mph 21.9 mph 0.00 in Snow Light Snow
3:31 PM 24.8 °F 12.9 °F 21.2 °F 86% 30.03 in 1.8 mi SW 13.8 mph 21.9 mph 0.00 in Snow Light Snow
3:49 PM 24.8 °F 12.4 °F 21.2 °F 86% 30.04 in 1.8 mi WSW 15.0 mph 23.0 mph 0.00 in Snow Light Snow
3:56 PM 25.0 °F 11.7 °F 21.0 °F 85% 30.06 in 4.0 mi WSW 17.3 mph 24.2 mph 0.00 in Snow Light Snow
4:31 PM 24.8 °F 12.9 °F 21.2 °F 86% 30.05 in 3.0 mi SW 13.8 mph 21.9 mph 0.00 in Snow Light Snow
4:34 PM 24.8 °F 13.4 °F 21.2 °F 86% 30.05 in 1.8 mi SW 12.7 mph 21.9 mph 0.00 in Snow Light Snow
4:44 PM 24.8 °F 14.0 °F 21.2 °F 86% 30.05 in 1.8 mi SW 11.5 mph 18.4 mph 0.00 in Snow Light Snow
4:56 PM 25.0 °F 14.8 °F 21.9 °F 88% 30.08 in 1.2 mi SW 10.4 mph - 0.00 in Snow Light Snow
4:59 PM 24.8 °F 12.9 °F 21.2 °F 86% 30.06 in 1.0 mi SW 13.8 mph - 0.00 in Snow Light Snow
5:15 PM 24.8 °F 12.9 °F 21.2 °F 86% 30.06 in 1.2 mi SW 13.8 mph - 0.00 in Snow Light Snow
5:39 PM 24.8 °F 12.4 °F 21.2 °F 86% 30.06 in 3.0 mi SW 15.0 mph 19.6 mph 0.00 in Snow Light Snow
5:46 PM 24.8 °F 12.4 °F 21.2 °F 86% 30.06 in 8.0 mi SW 15.0 mph 19.6 mph 0.00 in Snow Light Snow
5:56 PM 25.0 °F 14.2 °F 21.0 °F 85% 30.09 in 1.8 mi SW 11.5 mph 19.6 mph 0.00 in Snow Light Snow
6:31 PM 24.8 °F 12.9 °F 21.2 °F 86% 30.08 in 5.0 mi SW 13.8 mph 18.4 mph 0.00 in Snow Light Snow
7:56 PM 25.0 °F 13.6 °F 19.9 °F 81% 30.13 in 9.0 mi WSW 12.7 mph - 0.00 in Snow Light Snow
8:36 PM 24.8 °F 14.0 °F 19.4 °F 80% 30.12 in 9.0 mi WSW 11.5 mph - 0.00 in Snow Light Snow
8:56 PM 24.1 °F 13.1 °F 19.9 °F 84% 30.14 in 9.0 mi WSW 11.5 mph - 0.00 in Snow Light Snow
9:56 PM 24.1 °F 14.4 °F 19.0 °F 81% 30.17 in 9.0 mi SW 9.2 mph - 0.00 in Snow Light Snow
10:56 PM 24.1 °F 14.4 °F 19.0 °F 81% 30.17 in 10.0 mi SW 9.2 mph - 0.00 in   Overcast
11:56 PM 24.1 °F 16.0 °F 19.0 °F 81% 30.18 in 10.0 mi SSW 6.9 mph - 0.00 in   Overcast